Regional Weather Roundup
Issued by NWS Albany, NY

Home | Current Version | Previous Version | Text Only | Print | Product List | Glossary On
Versions: 1 2 3 4 5 6 7 8 9 10 11 12 13 14 15 16 17 18 19 20 21 22
000
ASUS41 KALY 300610
RWRALY

NEW YORK STATE HOURLY WEATHER ROUNDUP
NATIONAL WEATHER SERVICE ALBANY NY
200 AM EDT THU OCT 30 2014

NOTE: "FAIR" INDICATES FEW OR NO CLOUDS BELOW 12,000 FEET WITH NO
SIGNIFICANT WEATHER AND/OR NO OBSTRUCTIONS TO VISIBILITY.

NYZ032-033-038>043-046>054-057>066-NYZ062>081-300700-
EAST


CITY           SKY/WX    TMP DP  RH WIND       PRES   REMARKS
ALBANY         CLOUDY    47  42  83 CALM      29.92S
GLENS FALLS    CLOUDY    47  38  71 W3        29.90S
POUGHKEEPSIE   CLOUDY    40  39  97 CALM      29.93S FOG
NEWBURGH       CLEAR     43  43 100 CALM      29.95S
MONTGOMERY     FOG       37  36  96 SW3       29.93F VSB 1/4
WHITE PLAINS   CLEAR     43  42  97 NW6       29.93S
ISLIP          PTCLDY    48  46  93 NW3       29.93R
NEW YORK CITY  PTCLDY    53  46  77 NW7       29.94S
CENTRAL PARK   CLEAR     52  45  77 W3        29.97S
$$

NYZ005>009-017-018-044>046-055-056-300700-
CENTRAL


CITY           SKY/WX    TMP DP  RH WIND       PRES   REMARKS
FULTON         CLOUDY    45  41  86 SW6       29.94S
SYRACUSE       CLOUDY    49  40  71 W14       29.94S
ROME           CLOUDY    47  42  83 W8        29.94S
ELMIRA         CLOUDY    46  41  82 SW7       29.97S
BINGHAMTON     CLOUDY    45  36  70 NW8       29.94S
MONTICELLO     CLOUDY    39  39 100 CALM      29.94S VSB 1/2
$$

NYZ026>034-041>043-300700-
NORTH


CITY           SKY/WX    TMP DP  RH WIND       PRES   REMARKS
WATERTOWN      CLOUDY    48  37  65 W12       29.92R
FORT DRUM      NOT AVBL
MASSENA        CLOUDY    48  38  68 W12       29.88R
SARANAC LAKE   CLOUDY    42  37  82 VRB6      29.84R
PLATTSBURGH    CLOUDY    48  40  73 S3        29.85R
$$

NYZ001>004-010>016-019>021-300700-
WEST


CITY           SKY/WX    TMP DP  RH WIND       PRES   REMARKS
NIAGARA FALLS  CLEAR     42  36  79 MISG      29.99R
BUFFALO        MOCLDY    43  36  76 W8        29.99R
DUNKIRK        CLOUDY    46  38  73 NW7       30.01S
JAMESTOWN      CLOUDY    39  37  93 W6        29.99S WCI  35
WELLSVILLE     CLOUDY    41  38  89 W7        29.98S
ROCHESTER      CLOUDY    46  37  71 W7        29.98R
PENN YAN       CLOUDY    46  37  71 W6        29.97S
$$

             KEY
       WCI = WIND CHILL INDEX
       VSB = VISIBILITY
       HX  = HEAT INDEX
$$



USA.gov is the U.S. government's official web portal to all federal, state and local government web resources and services.